Francistown, Botswana

10:30 PM CAT on May 25, 2017 (GMT +0200)
Francistown

Weather History for FBFT - October, 2012

Change the Weather History Date:

Saturday, October 13, 2012

  Actual Average Record
Temperature  
Mean Temperature 72 °F -  
Max Temperature 82 °F 87 °F 100 °F (2005)
Min Temperature 61 °F 63 °F 57 °F (2001)
Cooling Degree Days 6    
Growing Degree Days 22 (Base 50)    
Moisture  
Dew Point 59 °F    
Average Humidity 70    
Maximum Humidity 88    
Minimum Humidity 38    
Precipitation  
Precipitation 0.00 in - - ()
Sea Level Pressure  
Sea Level Pressure 30.12 in    
Wind  
Wind Speed 15 mph ()    
Max Wind Speed 24 mph    
Max Gust Speed 29 mph    
Visibility 6.2 miles    
Events      
Averages and records for this station are not official NWS values.
T = Trace of Precipitation, MM = Missing Value Source: Averaged Metar Reports

Daily Weather History Graph

Daily Weather History Graph

Search for Another Location

Airport or City:

Trip Planner

Search our weather history database for the weather conditions in past years. The results will help you decide how hot, cold, wet, or windy it might be!

Date:

Astronomy

Oct. 13, 2012 Rise Set
Actual Time 5:40 AM CAT 6:12 PM CAT
Civil Twilight 5:17 AM CAT 6:34 PM CAT
Nautical Twilight 4:51 AM CAT 7:01 PM CAT
Astronomical Twilight 4:24 AM CAT 7:27 PM CAT
Moon 3:49 AM CAT (10/13) 4:15 PM CAT (10/13)
Length of Visible Light 13h 17m
Length of Day
12h 32m
Waning Crescent, 6% of the Moon is Illuminated
Oct 13
Waning Crescent
Oct 15
New
Oct 22
First Quarter
Oct 29
Full
Nov 7
Last Quarter

Hourly Weather History & Observations

Time (CAT) Temp. Heat Index Dew Point Humidity Pressure Visibility Wind Dir Wind Speed Gust Speed Precip Events Conditions
12:00 AM 68.0 °F - 59.0 °F 73% 30.18 in - SE 24.2 mph - N/A   Clear
1:00 AM 68.0 °F - 59.0 °F 73% 30.15 in - North - - N/A   Clear
3:00 AM 64.4 °F - 59.0 °F 83% 30.18 in 6.2 mi SE 21.9 mph - N/A   Mostly Cloudy
4:00 AM 62.6 °F - 59.0 °F 88% 30.12 in 6.2 mi East 15.0 mph - N/A   Mostly Cloudy
5:00 AM 62.6 °F - 59.0 °F 88% 30.12 in 6.2 mi East 12.7 mph - N/A   Mostly Cloudy
6:00 AM 62.6 °F - 59.0 °F 88% 30.12 in 6.2 mi East 12.7 mph - N/A   Partly Cloudy
7:00 AM 62.6 °F - 59.0 °F 88% 30.15 in 6.2 mi East 10.4 mph - N/A   Partly Cloudy
8:00 AM 65 °F - 60 °F 78%  in 6 mi East 11.5 mph - -   Mostly Cloudy
8:00 AM 64.4 °F - 60.8 °F 88% 30.18 in 6.2 mi East 11.5 mph - N/A   Mostly Cloudy
9:00 AM 68.0 °F - 60.8 °F 78% 30.18 in 6.2 mi East 15.0 mph - N/A   Mostly Cloudy
10:00 AM 69.8 °F - 60.8 °F 73% 30.15 in 6.2 mi East 17.3 mph - N/A   Scattered Clouds
11:00 AM 75.2 °F - 60.8 °F 61% 30.15 in 6.2 mi East 13.8 mph - N/A   Scattered Clouds
12:00 PM 78.8 °F - 60.8 °F 54% 30.12 in 6.2 mi ESE 16.1 mph - N/A   Scattered Clouds
1:00 PM 80.6 °F 81.5 °F 60.8 °F 51% 30.09 in 6.2 mi ESE 16.1 mph 28.8 mph N/A   Partly Cloudy
2:00 PM 81 °F - 60 °F 38%  in 6 mi ESE 15.0 mph - -   Scattered Clouds
2:00 PM 80.6 °F 81.1 °F 59.0 °F 48% 30.06 in 6.2 mi ESE 15.0 mph - N/A   Partly Cloudy
3:00 PM 82.4 °F 82.5 °F 59.0 °F 45% 30.04 in 6.2 mi ESE 12.7 mph - N/A   Partly Cloudy
4:00 PM 80.6 °F 81.1 °F 59.0 °F 48% 30.04 in 6.2 mi ESE 16.1 mph - N/A   Partly Cloudy
5:00 PM 77.0 °F - 59.0 °F 54% 30.04 in 6.2 mi ESE 18.4 mph - N/A   Partly Cloudy
6:00 PM 71.6 °F - 59.0 °F 64% 30.06 in 6.2 mi ESE 21.9 mph - N/A   Partly Cloudy
8:00 PM 66 °F - 59 °F 72%  in 6 mi ESE 18.4 mph - -   Partly Cloudy
8:00 PM 66.2 °F - 59.0 °F 78% 30.12 in 6.2 mi ESE 18.4 mph - N/A   Scattered Clouds
9:00 PM 66.2 °F - 59.0 °F 78% 30.15 in 6.2 mi ESE 18.4 mph - N/A   Scattered Clouds
10:00 PM 66.2 °F - 59.0 °F 78% 30.18 in 6.2 mi East 13.8 mph - N/A   Mostly Cloudy
11:00 PM 66.2 °F - 57.2 °F 73% 30.15 in 6.2 mi ESE 17.3 mph - N/A   Mostly Cloudy